Regional Weather Roundup
Issued by NWS Jackson, KY

Home | Current Version | Previous Version | Graphics & Text | Print | Product List | Glossary On
Versions: 1 2 3 4 5 6 7 8 9 10 11 12 13 14 15 16 17 18 19 20 21 22 23 24 25 26 27 28
000
ASUS43 KJKL 240810
RWRJKL

EAST KENTUCKY HOURLY WEATHER ROUNDUP
NATIONAL WEATHER SERVICE JACKSON KY
400 AM EDT MON JUL 24 2017

NOTE: "FAIR" INDICATES FEW OR NO CLOUDS BELOW 12,000 FEET WITH
NO SIGNIFICANT WEATHER AND/OR OBSTRUCTIONS TO VISIBILITY.

* THESE REPORTS ARE NOT UNDER NWS QUALITY CONTROL AND MAY NOT
  REPORT WEATHER SUCH AS PRECIPITATION AND FOG.

KYZ079-080-083-085-087-088-110-112-115-119-120-240900
...EASTERN KENTUCKY...

CITY           SKY/WX    TMP DP  RH WIND       PRES   REMARKS
JACKSON        FOG       70  69  97 CALM      29.91S VSB 3/4
LONDON         PTCLDY    70  67  90 S3        29.93S
SOMERSET*      PTCLDY    68  68 100 CALM      29.94R
MONTICELLO*    PTCLDY    68  67  96 W10       29.95R
WILLIAMSBURG*  MOSUNNY   68  68 100 CALM      29.94R
MIDDLESBORO*   CLOUDY    69  69 100 CALM      29.95R
PIKE CO APT*     N/A     71  71 100 CALM      29.92R
BIG SANDY APT* CLOUDY    73  72  94 CALM      29.90S
MOREHEAD APT*  PTSUNNY   72  68  88 SW6       29.91S
$$

KYZ035-036-041-042-044-050-067-078-099-240900
...CENTRAL KENTUCKY...

CITY           SKY/WX    TMP DP  RH WIND       PRES   REMARKS
MT STERLING*   CLEAR     70  70 100 W3        29.91S
FLEMING/MASON* CLEAR     69  67  94 W5        29.89S
DANVILLE*      PTCLDY    68  68 100 CALM      29.92F
LEXINGTON      CLEAR     73  69  87 SW6       29.90S
FRANKFORT      CLEAR     72  68  87 CALM      29.87F
LOUISVILLE     PTCLDY    76  72  87 SW3       29.87S
LEBANON*         N/A     72  70  94 CALM      29.90S
GLASGOW*       PTCLDY    70  70 100 CALM      29.91S
BOWLING GREEN  CLEAR     74  71  91 CALM      29.90R
$$

KYZ091>093-OHZ055-061-077-WVZ005-015-034-035-042-240900
...SOUTHERN OHIO/WEST VIRGINIA...

CITY           SKY/WX    TMP DP  RH WIND       PRES   REMARKS
COVINGTON      PTCLDY    71  71 100 SW5       29.86S
COLUMBUS       CLEAR     67  67 100 S3        29.82F
DAYTON         PTCLDY    69  67  93 W5        29.85S
WILMINGTON     CLEAR     67  67 100 SW5       29.85S
HUNTINGTON     CLEAR     73  68  84 W6        29.85S
CHARLESTON     CLOUDY    71  69  93 VRB3      29.85S
PINEVILLE*     CLOUDY    69  68  96 MISG      29.97S FOG
BECKLEY        CLOUDY    67  64  90 SW5       29.94F
BLUEFIELD      MOCLDY    65  63  93 W7        29.97F
LOGAN CO APT*  PTSUNNY   70  70 100 CALM      29.90S FOG
$$

VAZ002-007-008-TNZ017-027-036-066-071-240900
...SOUTHWEST VIRGINIA/EAST TENNESSEE...

CITY           SKY/WX    TMP DP  RH WIND       PRES   REMARKS
WISE*          CLOUDY    68  68 100 SW5       30.01R
JONESVILLE*    CLOUDY    68  68 100 CALM      29.97R
ABINGDON*      CLOUDY    71  71  99 W8        29.98R
BRISTOL        MOCLDY    70  67  90 W5        29.95F
MORRISTOWN*    PTSUNNY   70  68  94 CALM      29.93S
SEVIERVILLE*   SUNNY     70  66  88 S3        29.92F
KNOXVILLE      CLOUDY    71  68  90 W3        29.92F
LAFOLLETTE*    CLOUDY    70  68  94 CALM      29.98R
OAK RIDGE      CLOUDY    70  68  93 CALM      29.95F
CROSSVILLE     CLOUDY    68  66  93 SW3       29.98F
NASHVILLE      CLOUDY    72  69  90 S8        29.91F
$$

...KEY TO REMARKS...
VSB - VISIBILITY IN MILES
WCI - WIND CHILL INDEX
HX  - HEAT INDEX

$$




USA.gov is the U.S. government's official web portal to all federal, state and local government web resources and services.